EW5860 Weather Reports


time (UTC)temp
F
wind
direction
speed
knots
gust
knots
rain 1hr
in
rain 24hr
in
rain mn
in
humidity
%
barometer
mb
20260831214549 76 211 0.0 0.9 0.00 0.11 0.02 81 1018.0
20260831213049 76 249 0.0 0.9 0.00 0.11 0.02 82 1018.1
20260831211547 76 256 0.0 0.0 0.00 0.11 0.02 81 1018.4
20260831210048 75 256 0.0 0.9 0.00 0.11 0.02 83 1018.5
20260831204545 75 219 0.0 0.9 0.00 0.11 0.02 91 1018.4
20260831203103 73 218 0.0 0.0 0.00 0.11 0.02 90 1018.5
20260831201550 74 218 0.0 0.0 0.00 0.11 0.02 92 1018.6
20260831200124 74 218 0.0 0.0 0.02 0.11 0.02 91 1018.8
20260831194542 74 219 0.0 0.0 0.02 0.11 0.02 90 1019.0
20260831193042 74 217 0.0 0.9 0.02 0.11 0.02 89 1019.1
20260831191544 75 138 0.0 0.9 0.02 0.11 0.02 84 1019.0
20260831190042 76 259 0.0 0.0 0.00 0.09 0.00 78 1019.4
20260831184545 76 259 0.0 0.9 0.00 0.09 0.00 76 1019.5
20260831183039 76 256 0.0 0.9 0.00 0.09 0.00 79 1019.4
20260831181548 77 203 0.0 0.0 0.00 0.09 0.00 78 1019.4
20260831180038 77 202 0.0 0.9 0.00 0.09 0.00 75 1019.3
20260831174548 78 265 0.0 0.0 0.00 0.09 0.00 75 1019.4
20260831173038 78 265 0.0 1.7 0.00 0.09 0.00 70 1019.6
20260831171536 78 241 0.0 1.7 0.00 0.09 0.00 70 1019.6
20260831170040 78 313 0.0 0.9 0.00 0.09 0.00 68 1019.6
20260831164534 78 256 0.0 1.7 0.00 0.09 0.00 69 1019.6
20260831163034 78 267 0.0 1.7 0.00 0.09 0.00 72 1019.6
20260831161531 78 103 0.9 2.6 0.00 0.09 0.00 72 1019.6
20260831160030 77 98 0.0 3.5 0.00 0.09 0.00 70 1019.7
20260831154528 77 115 0.0 1.7 0.00 0.09 0.00 73 1019.8
20260831153024 75 275 0.0 1.7 0.00 0.09 0.00 81 1019.9
20260831151521 74 281 0.0 0.9 0.00 0.09 0.00 83 1019.9
20260831150021 74 214 0.0 0.0 0.00 0.09 0.00 81 1020.0
20260831144518 73 214 0.0 0.0 0.00 0.09 0.00 82 1020.2
20260831143018 73 212 0.0 0.0 0.00 0.09 0.00 84 1020.1
20260831141512 72 258 0.0 0.0 0.00 0.09 0.00 86 1020.2
20260831140026 72 258 0.0 0.9 0.00 0.09 0.00 92 1020.2
20260831134508 71 302 0.0 0.0 0.00 0.09 0.00 95 1019.9
20260831133008 70 302 0.0 0.0 0.00 0.09 0.00 97 1019.9
20260831131506 70 302 0.0 0.0 0.00 0.09 0.00 97 1019.9
20260831130006 69 302 0.0 0.0 0.00 0.09 0.00 98 1020.0
20260831124505 69 303 0.0 0.0 0.00 0.09 0.00 98 1020.0
20260831123004 68 303 0.0 0.0 0.00 0.09 0.00 98 1020.0
20260831121502 68 304 0.0 0.0 0.00 0.09 0.00 98 1020.0
20260831120001 68 303 0.0 0.0 0.00 0.09 0.00 98 1019.9
20260831114500 68 304 0.0 0.0 0.00 0.09 0.00 98 1019.8
20260831113102 67 304 0.0 0.0 0.00 0.09 0.00 98 1019.8
20260831111558 67 303 0.0 0.0 0.00 0.09 0.00 98 1019.5
20260831110056 67 304 0.0 0.0 0.00 0.09 0.00 98 1019.4
20260831104604 67 304 0.0 0.0 0.00 0.09 0.00 98 1019.3
20260831103054 67 304 0.0 0.0 0.00 0.09 0.00 98 1019.3
20260831101559 67 303 0.0 0.0 0.00 0.09 0.00 98 1019.1
20260831100057 67 304 0.0 0.0 0.00 0.09 0.00 98 1018.9
20260831094553 67 303 0.0 0.0 0.00 0.09 0.00 98 1018.9
20260831093055 67 303 0.0 0.0 0.00 0.09 0.00 98 1018.7
20260831091548 68 303 0.0 0.0 0.00 0.09 0.00 98 1018.7
20260831090057 68 304 0.0 0.0 0.00 0.09 0.00 98 1018.6
20260831084556 68 304 0.0 0.0 0.00 0.09 0.00 98 1018.7
20260831083045 68 303 0.0 0.0 0.00 0.09 0.00 98 1018.7
20260831081544 68 304 0.0 0.0 0.00 0.09 0.00 98 1018.5
20260831080043 68 304 0.0 0.0 0.00 0.09 0.00 98 1018.5
20260831074542 69 304 0.0 0.0 0.00 0.09 0.00 97 1018.4
20260831073042 69 304 0.0 0.0 0.00 0.09 0.00 97 1018.5
20260831071539 69 303 0.0 0.0 0.00 0.09 0.00 97 1018.6
20260831070046 70 304 0.0 0.0 0.00 0.09 0.00 97 1018.5
20260831064538 70 303 0.0 0.0 0.00 0.09 0.00 97 1018.7
20260831063042 70 303 0.0 0.0 0.00 0.09 0.00 97 1018.9
20260831061537 70 303 0.0 0.0 0.00 0.09 0.00 97 1018.7
20260831060035 70 304 0.0 0.0 0.00 0.09 0.00 97 1018.6
20260831054534 70 304 0.0 0.0 0.00 0.09 0.00 97 1018.4
20260831053038 70 304 0.0 0.0 0.00 0.09 0.00 97 1018.5
20260831051537 71 304 0.0 0.0 0.00 0.09 0.00 97 1018.6
20260831050036 71 304 0.0 0.0 0.00 0.09 0.00 96 1018.6
20260831044530 71 304 0.0 0.0 0.00 0.09 0.00 96 1018.7
20260831043028 71 304 0.0 0.0 0.00 0.09 0.00 96 1018.6
20260831041525 72 304 0.0 0.0 0.00 0.09 0.00 95 1018.7
20260831040025 72 303 0.0 0.0 0.00 0.09 0.00 95 1018.9
20260831034522 72 304 0.0 0.0 0.00 0.09 0.09 94 1018.9
20260831033039 73 320 0.0 0.0 0.00 0.09 0.09 93 1018.9
20260831031520 73 260 0.0 6.1 0.00 0.09 0.09 93 1018.9
20260831030022 73 197 1.7 7.8 0.00 0.09 0.09 92 1018.7
20260831024520 74 180 4.3 8.7 0.00 0.09 0.09 92 1018.7
20260831023019 74 173 1.7 7.8 0.00 0.09 0.09 94 1018.9
20260831021518 74 227 3.5 6.1 0.00 0.09 0.09 95 1018.7
20260831020018 74 202 0.9 6.1 0.06 0.09 0.09 96 1018.8
20260831014519 74 234 0.0 1.7 0.08 0.09 0.09 96 1018.7
20260831013017 74 203 0.0 1.7 0.09 0.09 0.09 96 1019.0
20260831011518 74 205 0.0 0.9 0.09 0.09 0.09 95 1018.7
20260831010015 75 240 0.0 0.0 0.02 0.02 0.02 93 1018.5
20260831004515 76 240 0.0 2.6 0.01 0.01 0.01 91 1018.4
20260831003020 76 211 0.9 3.5 0.00 0.00 0.00 89 1018.1
20260831001518 77 205 0.9 2.6 0.00 0.00 0.00 89 1018.0
20260831000013 77 200 0.9 4.3 0.00 0.00 0.00 88 1018.0
20260830234531 77 195 0.0 1.7 0.00 0.00 0.00 89 1017.8
20260830233011 77 208 0.0 1.7 0.00 0.00 0.00 90 1017.9
20260830231513 78 201 0.0 0.9 0.00 0.00 0.00 88 1018.0
20260830230009 79 200 0.0 2.6 0.00 0.00 0.00 86 1018.0
20260830224509 80 217 0.0 2.6 0.00 0.00 0.00 84 1018.0
20260830223009 80 196 0.9 2.6 0.00 0.00 0.00 81 1017.9
20260830221513 82 224 0.9 2.6 0.00 0.00 0.00 78 1017.8
20260830220009 82 177 0.0 6.1 0.00 0.00 0.00 75 1017.8